Time,TemperatureF,DewpointF,PressureIn,WindDirection,WindDirectionDegrees,WindSpeedMPH,WindSpeedGustMPH,Humidity,HourlyPrecipIn,Conditions,Clouds,dailyrainin,SolarRadiationWatts/m^2,SoftwareType,DateUTC
2013-10-22 00:00:00,41.0,27.0,-100.00,WNW,292,7.0,-999.0,57,-99.99,,,-99.99,0.000000,,2013-10-22 04:00:00,
2013-10-22 00:43:00,41.0,27.0,-100.00,WNW,292,7.0,-999.0,57,-99.99,,,-99.99,0.000000,,2013-10-22 04:43:00,
2013-10-22 00:55:00,41.0,27.0,-100.00,WNW,292,7.0,-999.0,57,-99.99,,,-99.99,0.000000,,2013-10-22 04:55:00,
2013-10-22 01:00:00,41.0,26.0,-100.00,WNW,292,8.0,-999.0,56,-99.99,,,-99.99,0.000000,,2013-10-22 05:00:00,
2013-10-22 01:43:00,41.0,26.0,-100.00,WNW,292,8.0,-999.0,56,-99.99,,,-99.99,0.000000,,2013-10-22 05:43:00,
2013-10-22 01:52:00,41.0,26.0,-100.00,WNW,292,8.0,-999.0,56,-99.99,,,-99.99,0.000000,,2013-10-22 05:52:00,
2013-10-22 02:00:00,40.0,26.0,-100.00,WNW,292,9.0,-999.0,56,-99.99,,,-99.99,0.000000,,2013-10-22 06:00:00,
2013-10-22 02:43:00,40.0,26.0,-100.00,WNW,292,9.0,-999.0,56,-99.99,,,-99.99,0.000000,,2013-10-22 06:43:00,
2013-10-22 02:54:00,40.0,26.0,-100.00,WNW,292,9.0,-999.0,56,-99.99,,,-99.99,0.000000,,2013-10-22 06:54:00,
2013-10-22 03:00:00,40.0,25.0,-100.00,WNW,292,9.0,-999.0,56,-99.99,,,-99.99,0.000000,,2013-10-22 07:00:00,
2013-10-22 03:42:00,40.0,25.0,-100.00,WNW,292,9.0,-999.0,56,-99.99,,,-99.99,0.000000,,2013-10-22 07:42:00,
2013-10-22 03:52:00,40.0,25.0,-100.00,WNW,292,9.0,-999.0,56,-99.99,,,-99.99,0.000000,,2013-10-22 07:52:00,
2013-10-22 05:00:00,40.0,27.0,-100.00,WNW,292,8.0,-999.0,60,-99.99,,,-99.99,0.000000,,2013-10-22 09:00:00,
2013-10-22 05:43:00,40.0,27.0,-100.00,WNW,292,8.0,-999.0,60,-99.99,,,-99.99,0.000000,,2013-10-22 09:43:00,
2013-10-22 05:54:00,40.0,27.0,-100.00,WNW,292,8.0,-999.0,60,-99.99,,,-99.99,0.000000,,2013-10-22 09:54:00,
2013-10-22 06:00:00,39.0,28.0,-100.00,WNW,292,6.0,-999.0,64,-99.99,,,-99.99,0.000000,,2013-10-22 10:00:00,
2013-10-22 06:43:00,39.0,28.0,-100.00,WNW,292,6.0,-999.0,64,-99.99,,,-99.99,0.000000,,2013-10-22 10:43:00,
2013-10-22 06:53:00,39.0,28.0,-100.00,WNW,292,6.0,-999.0,64,-99.99,,,-99.99,0.000000,,2013-10-22 10:53:00,
2013-10-22 07:00:00,38.0,28.0,-100.00,WNW,292,5.0,-999.0,67,-99.99,,,-99.99,0.000000,,2013-10-22 11:00:00,
2013-10-22 07:42:00,38.0,28.0,-100.00,WNW,292,5.0,-999.0,67,-99.99,,,-99.99,0.000000,,2013-10-22 11:42:00,
2013-10-22 07:53:00,38.0,28.0,-100.00,WNW,292,5.0,-999.0,67,-99.99,,,-99.99,0.000000,,2013-10-22 11:53:00,
2013-10-22 08:00:00,38.0,29.0,-100.00,WNW,292,4.0,-999.0,69,-99.99,,,-99.99,0.000000,,2013-10-22 12:00:00,
2013-10-22 08:42:00,38.0,29.0,-100.00,WNW,292,4.0,-999.0,69,-99.99,,,-99.99,0.000000,,2013-10-22 12:42:00,
2013-10-22 08:52:00,38.0,29.0,-100.00,WNW,292,4.0,-999.0,69,-99.99,,,-99.99,0.000000,,2013-10-22 12:52:00,
2013-10-22 10:00:00,41.0,31.0,-100.00,WNW,292,5.0,-999.0,67,-99.99,,,-99.99,88.160004,,2013-10-22 14:00:00,
2013-10-22 10:42:00,41.0,31.0,-100.00,WNW,292,5.0,-999.0,67,-99.99,,,-99.99,88.160004,,2013-10-22 14:42:00,
2013-10-22 10:52:00,41.0,31.0,-100.00,WNW,292,5.0,-999.0,67,-99.99,,,-99.99,88.160004,,2013-10-22 14:52:00,
2013-10-22 11:00:00,42.0,31.0,-100.00,WNW,292,8.0,-999.0,64,-99.99,,,-99.99,146.160004,,2013-10-22 15:00:00,
2013-10-22 11:43:00,42.0,31.0,-100.00,WNW,292,8.0,-999.0,64,-99.99,,,-99.99,146.160004,,2013-10-22 15:43:00,
2013-10-22 11:54:00,42.0,31.0,-100.00,WNW,292,8.0,-999.0,64,-99.99,,,-99.99,146.160004,,2013-10-22 15:54:00,
2013-10-22 12:00:00,42.0,31.0,-100.00,WNW,292,8.0,-999.0,64,-99.99,,,-99.99,162.399994,,2013-10-22 16:00:00,
2013-10-22 12:43:00,42.0,31.0,-100.00,WNW,292,8.0,-999.0,64,-99.99,,,-99.99,162.399994,,2013-10-22 16:43:00,
2013-10-22 12:53:00,42.0,31.0,-100.00,WNW,292,8.0,-999.0,64,-99.99,,,-99.99,162.399994,,2013-10-22 16:53:00,
2013-10-22 13:00:00,43.0,32.0,-100.00,West,270,7.0,-999.0,63,-99.99,,,-99.99,225.039993,,2013-10-22 17:00:00,
2013-10-22 13:43:00,43.0,32.0,-100.00,West,270,7.0,-999.0,63,-99.99,,,-99.99,225.039993,,2013-10-22 17:43:00,
2013-10-22 13:52:00,43.0,32.0,-100.00,West,270,7.0,-999.0,63,-99.99,,,-99.99,225.039993,,2013-10-22 17:52:00,
2013-10-22 14:00:00,44.0,32.0,-100.00,West,270,6.0,-999.0,62,-99.99,,,-99.99,222.720001,,2013-10-22 18:00:00,
2013-10-22 14:42:00,44.0,32.0,-100.00,West,270,6.0,-999.0,62,-99.99,,,-99.99,222.720001,,2013-10-22 18:42:00,
2013-10-22 14:52:00,44.0,32.0,-100.00,West,270,6.0,-999.0,62,-99.99,,,-99.99,222.720001,,2013-10-22 18:52:00,
2013-10-22 15:00:00,44.0,32.0,-100.00,West,270,6.0,-999.0,63,-99.99,,,-99.99,220.399994,,2013-10-22 19:00:00,
2013-10-22 15:43:00,44.0,32.0,-100.00,West,270,6.0,-999.0,63,-99.99,,,-99.99,220.399994,,2013-10-22 19:43:00,
2013-10-22 15:53:00,44.0,32.0,-100.00,West,270,6.0,-999.0,63,-99.99,,,-99.99,220.399994,,2013-10-22 19:53:00,
2013-10-22 16:00:00,44.0,32.0,-100.00,West,270,6.0,-999.0,62,-99.99,,,-99.99,182.119995,,2013-10-22 20:00:00,
2013-10-22 16:43:00,44.0,32.0,-100.00,West,270,6.0,-999.0,62,-99.99,,,-99.99,182.119995,,2013-10-22 20:43:00,
2013-10-22 16:52:00,44.0,32.0,-100.00,West,270,6.0,-999.0,62,-99.99,,,-99.99,182.119995,,2013-10-22 20:52:00,
2013-10-22 17:00:00,43.0,31.0,-100.00,West,270,5.0,-999.0,63,-99.99,,,-99.99,120.639999,,2013-10-22 21:00:00,
2013-10-22 17:44:00,43.0,31.0,-100.00,West,270,5.0,-999.0,63,-99.99,,,-99.99,120.639999,,2013-10-22 21:44:00,
2013-10-22 17:54:00,43.0,31.0,-100.00,West,270,5.0,-999.0,63,-99.99,,,-99.99,120.639999,,2013-10-22 21:54:00,
2013-10-22 18:00:00,43.0,31.0,-100.00,WSW,247,5.0,-999.0,64,-99.99,,,-99.99,61.480000,,2013-10-22 22:00:00,
2013-10-22 18:44:00,43.0,31.0,-100.00,WSW,247,5.0,-999.0,64,-99.99,,,-99.99,61.480000,,2013-10-22 22:44:00,
2013-10-22 18:54:00,43.0,31.0,-100.00,WSW,247,5.0,-999.0,64,-99.99,,,-99.99,61.480000,,2013-10-22 22:54:00,
2013-10-22 19:00:00,41.0,31.0,-100.00,WSW,247,2.0,-999.0,67,-99.99,,,-99.99,20.879999,,2013-10-22 23:00:00,
2013-10-22 19:43:00,41.0,31.0,-100.00,WSW,247,2.0,-999.0,67,-99.99,,,-99.99,20.879999,,2013-10-22 23:43:00,
2013-10-22 19:53:00,41.0,31.0,-100.00,WSW,247,2.0,-999.0,67,-99.99,,,-99.99,20.879999,,2013-10-22 23:53:00,
2013-10-22 20:00:00,39.0,34.0,-100.00,SW,225,4.0,-999.0,82,-99.99,,,-99.99,0.000000,,2013-10-23 00:00:00,
2013-10-22 20:42:00,39.0,34.0,-100.00,SW,225,4.0,-999.0,82,-99.99,,,-99.99,0.000000,,2013-10-23 00:42:00,
2013-10-22 20:52:00,39.0,34.0,-100.00,SW,225,4.0,-999.0,82,-99.99,,,-99.99,0.000000,,2013-10-23 00:52:00,
2013-10-22 21:00:00,37.0,33.0,-100.00,SSW,202,2.0,-999.0,87,-99.99,,,-99.99,0.000000,,2013-10-23 01:00:00,
2013-10-22 21:42:00,37.0,33.0,-100.00,SSW,202,2.0,-999.0,87,-99.99,,,-99.99,0.000000,,2013-10-23 01:42:00,
2013-10-22 21:52:00,37.0,33.0,-100.00,SSW,202,2.0,-999.0,87,-99.99,,,-99.99,0.000000,,2013-10-23 01:52:00,
2013-10-22 22:00:00,36.0,34.0,-100.00,SW,225,2.0,-999.0,89,-99.99,,,-99.99,0.000000,,2013-10-23 02:00:00,
2013-10-22 22:42:00,36.0,34.0,-100.00,SW,225,2.0,-999.0,89,-99.99,,,-99.99,0.000000,,2013-10-23 02:42:00,
2013-10-22 22:54:00,36.0,34.0,-100.00,SW,225,2.0,-999.0,89,-99.99,,,-99.99,0.000000,,2013-10-23 02:54:00,
2013-10-22 23:00:00,37.0,34.0,-100.00,SW,225,2.0,-999.0,89,-99.99,,,-99.99,0.000000,,2013-10-23 03:00:00,
2013-10-22 23:44:00,37.0,34.0,-100.00,SW,225,2.0,-999.0,89,-99.99,,,-99.99,0.000000,,2013-10-23 03:44:00,
2013-10-22 23:55:00,37.0,34.0,-100.00,SW,225,2.0,-999.0,89,-99.99,,,-99.99,0.000000,,2013-10-23 03:55:00,